Change the Weather History Date:

Wednesday, March 13, 2013

  Actual Average Record
Temperature  
Mean Temperature 60 °F -  
Max Temperature 73 °F 66 °F 82 °F (2007)
Min Temperature 46 °F 48 °F 44 °F (1999)
Degree Days  
Heating Degree Days 6    
Growing Degree Days 10 (Base 50)    
Moisture  
Dew Point 49 °F    
Average Humidity 73    
Maximum Humidity 94    
Minimum Humidity 31    
Precipitation  
Precipitation 0.00 in - - ()
Sea Level Pressure  
Sea Level Pressure 30.10 in    
Wind  
Wind Speed 3 mph ()    
Max Wind Speed 13 mph    
Max Gust Speed -    
Visibility 5.1 miles    
Events Fog    
Averages and records for this station are not official NWS values.
T = Trace of Precipitation, MM = Missing Value Source: Averaged Metar Reports

Daily Weather History Graph

Daily Weather History Graph

Search for Another Location

Airport or City:

Trip Planner

Search our weather history database for the weather conditions in past years. The results will help you decide how hot, cold, wet, or windy it might be!

Date:

Astronomy

Mar. 13, 2013 Rise Set
Actual Time 7:00 AM PDT 6:54 PM PDT
Civil Twilight 6:35 AM PDT 7:19 PM PDT
Nautical Twilight 6:07 AM PDT 7:47 PM PDT
Astronomical Twilight 5:38 AM PDT 8:16 PM PDT
Moon 7:51 AM PDT (3/13) 9:05 PM PDT (3/13)
Length of Visible Light 12h 43m
Length of Day
11h 54m
Waxing Crescent, 4% of the Moon is Illuminated
Mar 13
Waxing Crescent
Mar 19
First Quarter
Mar 27
Full
Apr 2
Last Quarter
Apr 10
New

Hourly Weather History & Observations

Time (PDT) Temp. Dew Point Humidity Pressure Visibility Wind Dir Wind Speed Gust Speed Precip Events Conditions
12:41 AM 50.0 °F 48.2 °F 94% 30.10 in 6.0 mi Calm Calm - N/A   Clear
1:41 AM 51.8 °F 48.2 °F 88% 30.13 in 4.0 mi Calm Calm - N/A Fog Shallow Fog
2:41 AM 50.0 °F 48.2 °F 94% 30.08 in 6.0 mi Calm Calm - N/A   Clear
3:42 AM 50.0 °F 48.2 °F 94% 30.06 in 6.0 mi Calm Calm - N/A   Clear
4:41 AM 48.2 °F 46.4 °F 93% 30.11 in 6.0 mi Calm Calm - N/A   Clear
5:41 AM 46.4 °F 44.6 °F 93% 30.08 in 5.0 mi Calm Calm - N/A   Clear
6:43 AM 46.4 °F 44.6 °F 93% 30.10 in 6.0 mi Calm Calm - N/A Fog Shallow Fog
7:51 AM 50.0 °F 48.2 °F 94% 30.14 in 8.0 mi East 3.5 mph - N/A   Clear
8:44 AM 59.0 °F 48.2 °F 67% 30.11 in 8.0 mi ESE 3.5 mph - N/A   Clear
9:14 AM 64.4 °F 42.8 °F 45% 30.11 in 7.0 mi Calm Calm - N/A   Clear
9:41 AM 68.0 °F 37.4 °F 33% 30.11 in 7.0 mi SE 3.5 mph - N/A   Clear
10:12 AM 71.6 °F 39.2 °F 31% 30.12 in 7.0 mi Calm Calm - N/A   Clear
10:41 AM 73.4 °F 46.4 °F 38% 30.14 in 7.0 mi West 3.5 mph - N/A   Clear
11:30 AM 66.2 °F 53.6 °F 64% 30.12 in 6.0 mi West 12.7 mph - N/A   Clear
11:41 AM 66.2 °F 51.8 °F 60% 30.11 in 6.0 mi West 12.7 mph - N/A   Clear
12:40 PM 69.8 °F 51.8 °F 53% 30.11 in 6.0 mi WNW 9.2 mph - N/A   Clear
1:17 PM 66.2 °F 50.0 °F 56% 30.10 in 6.0 mi West 9.2 mph - N/A   Clear
1:43 PM 68.0 °F 51.8 °F 56% 30.12 in 6.0 mi West 11.5 mph - N/A   Clear
2:41 PM 66.2 °F 50.0 °F 56% 30.08 in 6.0 mi NW 11.5 mph - N/A   Clear
3:42 PM 66.2 °F 50.0 °F 56% 30.06 in 6.0 mi NW 6.9 mph - N/A   Clear
4:47 PM 69.8 °F 51.8 °F 53% 30.09 in 6.0 mi WNW 11.5 mph - N/A   Clear
5:50 PM 64.4 °F 51.8 °F 64% 30.06 in 6.0 mi West 9.2 mph - N/A   Clear
6:45 PM 57.2 °F 50.0 °F 77% 30.06 in 6.0 mi West 8.1 mph - N/A   Clear
7:45 PM 53.6 °F 50.0 °F 88% 30.09 in 5.0 mi West 5.8 mph - N/A   Clear
8:10 PM 51.8 °F 50.0 °F 94% 30.08 in 0.1 mi West 8.1 mph - N/A Fog Fog
8:45 PM 53.6 °F 50.0 °F 88% 30.09 in 0.2 mi WNW 6.9 mph - N/A Fog Fog
9:45 PM 53.6 °F 51.8 °F 94% 30.11 in 0.1 mi Calm Calm - N/A Fog Fog
10:45 PM 51.8 °F 50.0 °F 94% 30.14 in 0.1 mi Calm Calm - N/A Fog Fog
11:32 PM 51.8 °F 50.0 °F 94% 30.10 in 2.0 mi Calm Calm - N/A   Clear
11:43 PM 53.6 °F 51.8 °F 94% 30.10 in 3.0 mi Calm Calm - N/A   Clear